Tracking 29040 objects as of 15-Jun-2024
HD Live streaming from Space Station
objects crossing your sky now

STARLINK-6148

Track STARLINK-6148 now!
10-day predictions
STARLINK-6148 is classified as:


NORAD ID: 57117
Int'l Code: 2023-090S
Perigee: 565.5 km
Apogee: 566.9 km
Inclination: 43.0 °
Period: 95.8 minutes
Semi major axis: 6937 km
RCS: Unknown
Launch date: June 23, 2023
Source: United States (US)
Launch site: AIR FORCE EASTERN TEST RANGE (AFETR)
Your satellite tracking list
Your tracking list is empty




NASA's NSSDC Master Catalog

Two Line Element Set (TLE):
1 57117U 23090S   24166.87941951  .00000679  00000-0  65302-4 0  9990
2 57117  43.0022 113.0459 0001006 268.5816  91.4911 15.02534597 55220
Source of the keplerian elements: AFSPC